When you browse on this site, cookies collect data to enhance your experience and personalize the content and advertising you see.
Visit our Privacy Policy to learn more. By continuing to use the site, you agree to this use of cookies and data.
EN

Hourly Weather Armawir

Today, 15 July, Wednesday

Time Temperature Precipitation Wind Pressure Humidity
00:00 +24°C° 0.1 mm 2 mps 687 mmHg 57%
01:00 +23°C° 0 mm 2 mps 687 mmHg 58%
02:00 +23°C° 0 mm 2 mps 687 mmHg 60%
03:00 +22°C° 0 mm 1 mps 687 mmHg 61%
04:00 +21°C° 0 mm 2 mps 687 mmHg 60%
05:00 +23°C° 0 mm 2 mps 687 mmHg 60%
06:00 +23°C° 0 mm 2 mps 688 mmHg 60%
07:00 +25°C° 0 mm 2 mps 688 mmHg 54%
08:00 +26°C° 0 mm 2 mps 688 mmHg 49%
09:00 +28°C° 0 mm 2 mps 688 mmHg 43%
10:00 +29°C° 0.1 mm 2 mps 688 mmHg 40%
11:00 +31°C° 0.1 mm 1 mps 687 mmHg 37%
12:00 +32°C° 0.1 mm 1 mps 687 mmHg 34%
13:00 +33°C° 0 mm 1 mps 687 mmHg 31%
14:00 +33°C° 0 mm 1 mps 687 mmHg 29%
15:00 +35°C° 0 mm 2 mps 687 mmHg 26%
16:00 +35°C° 0 mm 2 mps 687 mmHg 28%
17:00 +34°C° 0 mm 2 mps 687 mmHg 31%
18:00 +34°C° 0 mm 3 mps 687 mmHg 33%
19:00 +31°C° 0 mm 2 mps 687 mmHg 38%
20:00 +29°C° 0 mm 2 mps 687 mmHg 43%
21:00 +27°C° 0 mm 2 mps 687 mmHg 48%
22:00 +26°C° 0 mm 2 mps 687 mmHg 50%
23:00 +25°C° 0 mm 2 mps 687 mmHg 52%

Tomorrow, 16 July, Thursday

Time Temperature Precipitation Wind Pressure Humidity
00:00 +25°C° 0 mm 1 mps 687 mmHg 54%
01:00 +24°C° 0 mm 2 mps 687 mmHg 56%
02:00 +23°C° 0 mm 2 mps 687 mmHg 57%
03:00 +23°C° 0 mm 2 mps 687 mmHg 59%
04:00 +23°C° 0 mm 2 mps 687 mmHg 59%
05:00 +23°C° 0 mm 2 mps 686 mmHg 59%
06:00 +24°C° 0 mm 2 mps 686 mmHg 59%
07:00 +25°C° 0 mm 2 mps 687 mmHg 53%
08:00 +27°C° 0 mm 1 mps 687 mmHg 47%
09:00 +29°C° 0 mm 1 mps 687 mmHg 41%
10:00 +30°C° 0 mm 1 mps 687 mmHg 38%
11:00 +31°C° 0 mm 1 mps 686 mmHg 35%
12:00 +34°C° 0 mm 2 mps 686 mmHg 32%
13:00 +34°C° 0 mm 2 mps 686 mmHg 30%
14:00 +35°C° 0 mm 2 mps 686 mmHg 28%
15:00 +36°C° 0 mm 2 mps 686 mmHg 26%
16:00 +35°C° 0 mm 3 mps 685 mmHg 28%
17:00 +35°C° 0 mm 3 mps 685 mmHg 29%
18:00 +35°C° 0 mm 3 mps 685 mmHg 30%
19:00 +33°C° 0 mm 3 mps 685 mmHg 35%
20:00 +30°C° 0 mm 3 mps 685 mmHg 39%
21:00 +28°C° 0 mm 3 mps 685 mmHg 44%
22:00 +27°C° 0 mm 2 mps 685 mmHg 46%
23:00 +26°C° 0 mm 2 mps 685 mmHg 48%

Day after tomorrow, 17 July, Friday

Time Temperature Precipitation Wind Pressure Humidity
00:00 +25°C° 0 mm 2 mps 685 mmHg 50%
01:00 +25°C° 0 mm 2 mps 685 mmHg 52%
02:00 +24°C° 0 mm 1 mps 685 mmHg 54%
03:00 +24°C° 0 mm 1 mps 685 mmHg 56%
04:00 +24°C° 0 mm 1 mps 685 mmHg 56%
05:00 +24°C° 0 mm 1 mps 685 mmHg 56%
06:00 +25°C° 0 mm 1 mps 685 mmHg 56%
07:00 +27°C° 0 mm 1 mps 685 mmHg 50%
08:00 +28°C° 0 mm 2 mps 685 mmHg 44%
09:00 +30°C° 0 mm 2 mps 685 mmHg 39%
10:00 +31°C° 0 mm 2 mps 685 mmHg 36%
11:00 +34°C° 0 mm 3 mps 685 mmHg 33%
12:00 +35°C° 0 mm 3 mps 685 mmHg 30%
13:00 +36°C° 0 mm 3 mps 685 mmHg 28%
14:00 +36°C° 0 mm 3 mps 684 mmHg 26%
15:00 +37°C° 0 mm 2 mps 684 mmHg 24%
16:00 +36°C° 0.2 mm 3 mps 684 mmHg 28%
17:00 +35°C° 0.2 mm 3 mps 684 mmHg 33%
18:00 +33°C° 0.2 mm 4 mps 684 mmHg 37%
19:00 +30°C° 0.4 mm 4 mps 684 mmHg 44%
20:00 +27°C° 0.4 mm 4 mps 684 mmHg 51%
21:00 +25°C° 0.4 mm 4 mps 684 mmHg 59%
22:00 +25°C° 0.1 mm 3 mps 684 mmHg 60%
23:00 +24°C° 0.1 mm 3 mps 685 mmHg 61%

18 July, Saturday

Time Temperature Precipitation Wind Pressure Humidity
00:00 +24°C° 0.1 mm 2 mps 685 mmHg 62%
01:00 +23°C° 0 mm 2 mps 685 mmHg 62%
02:00 +23°C° 0 mm 2 mps 685 mmHg 62%
03:00 +23°C° 0 mm 2 mps 685 mmHg 63%
04:00 +23°C° 0 mm 2 mps 685 mmHg 62%
05:00 +24°C° 0 mm 1 mps 685 mmHg 61%
06:00 +24°C° 0 mm 1 mps 685 mmHg 60%
07:00 +26°C° 0 mm 1 mps 685 mmHg 53%
08:00 +28°C° 0 mm 1 mps 686 mmHg 47%
09:00 +30°C° 0 mm 1 mps 686 mmHg 41%
10:00 +31°C° 0 mm 1 mps 686 mmHg 38%
11:00 +34°C° 0 mm 2 mps 686 mmHg 34%
12:00 +35°C° 0 mm 2 mps 686 mmHg 31%
13:00 +36°C° 0 mm 2 mps 686 mmHg 29%
14:00 +37°C° 0 mm 2 mps 686 mmHg 27%
15:00 +38°C° 0 mm 2 mps 686 mmHg 25%
16:00 +37°C° 0 mm 2 mps 685 mmHg 28%
17:00 +36°C° 0 mm 3 mps 685 mmHg 31%
18:00 +35°C° 0 mm 4 mps 685 mmHg 34%
19:00 +34°C° 0 mm 3 mps 686 mmHg 37%
20:00 +31°C° 0 mm 2 mps 686 mmHg 41%
21:00 +29°C° 0 mm 1 mps 686 mmHg 45%
22:00 +28°C° 0 mm 1 mps 686 mmHg 46%
23:00 +28°C° 0 mm 1 mps 686 mmHg 47%

19 July, Sunday

Time Temperature Precipitation Wind Pressure Humidity
00:00 +27°C° 0 mm 1 mps 686 mmHg 48%
01:00 +27°C° 0 mm 1 mps 686 mmHg 49%
02:00 +26°C° 0 mm 1 mps 687 mmHg 51%
03:00 +26°C° 0 mm 1 mps 687 mmHg 52%
04:00 +26°C° 0 mm 1 mps 687 mmHg 53%
05:00 +26°C° 0 mm 2 mps 687 mmHg 54%
06:00 +27°C° 0 mm 2 mps 687 mmHg 55%
07:00 +29°C° 0 mm 1 mps 687 mmHg 49%
08:00 +31°C° 0 mm 1 mps 687 mmHg 43%
09:00 +32°C° 0 mm 1 mps 687 mmHg 36%
10:00 +34°C° 0 mm 1 mps 687 mmHg 33%
11:00 +36°C° 0 mm 2 mps 687 mmHg 30%
12:00 +38°C° 0 mm 2 mps 687 mmHg 26%
13:00 +39°C° 0 mm 2 mps 687 mmHg 25%
14:00 +40°C° 0 mm 2 mps 687 mmHg 23%
15:00 +40°C° 0 mm 2 mps 687 mmHg 22%
16:00 +40°C° 0 mm 2 mps 687 mmHg 23%
17:00 +40°C° 0 mm 2 mps 687 mmHg 24%
18:00 +40°C° 0 mm 2 mps 687 mmHg 25%
19:00 +37°C° 0 mm 2 mps 687 mmHg 30%
20:00 +35°C° 0 mm 3 mps 687 mmHg 35%
21:00 +31°C° 0 mm 3 mps 687 mmHg 40%
22:00 +30°C° 0 mm 2 mps 687 mmHg 44%
23:00 +29°C° 0 mm 2 mps 687 mmHg 47%

20 July, Monday

Time Temperature Precipitation Wind Pressure Humidity
00:00 +28°C° 0 mm 1 mps 687 mmHg 50%
01:00 +28°C° 0 mm 1 mps 687 mmHg 52%
02:00 +27°C° 0 mm 2 mps 686 mmHg 54%
03:00 +27°C° 0 mm 2 mps 686 mmHg 56%
04:00 +27°C° 0 mm 2 mps 686 mmHg 56%
05:00 +27°C° 0 mm 2 mps 687 mmHg 55%
06:00 +28°C° 0 mm 2 mps 687 mmHg 55%
07:00 +30°C° 0 mm 2 mps 687 mmHg 49%
08:00 +31°C° 0 mm 2 mps 687 mmHg 43%
09:00 +33°C° 0 mm 1 mps 687 mmHg 38%
10:00 +35°C° 0 mm 1 mps 687 mmHg 34%
11:00 +36°C° 0 mm 1 mps 687 mmHg 30%
12:00 +39°C° 0 mm 1 mps 687 mmHg 26%
13:00 +40°C° 0 mm 1 mps 687 mmHg 23%
14:00 +41°C° 0 mm 1 mps 686 mmHg 19%
15:00 +42°C° 0 mm 1 mps 686 mmHg 15%
16:00 +41°C° 0 mm 1 mps 686 mmHg 16%
17:00 +41°C° 0 mm 1 mps 686 mmHg 18%
18:00 +41°C° 0 mm 1 mps 686 mmHg 19%
19:00 +38°C° 0 mm 2 mps 686 mmHg 26%
20:00 +35°C° 0 mm 2 mps 686 mmHg 32%
21:00 +31°C° 0 mm 3 mps 686 mmHg 39%
22:00 +31°C° 0 mm 2 mps 685 mmHg 42%
23:00 +30°C° 0 mm 2 mps 685 mmHg 44%
Show more